Regional Weather Roundup
Issued by NWS

Home | Current Version | Previous Version | Graphics & Text | Print | Product List | Glossary On
Versions: 1 2 3 4 5 6 7 8 9 10 11 12 13 14 15 16 17 18 19 20 21 22 23 24 25 26 27 28 29 30 31 32 33 34 35 36 37 38 39 40 41 42 43 44 45 46 47 48 49 50
221
ASUS43 KOAX 230610
RWRNE

WEATHER ROUNDUP FOR NEBRASKA
NATIONAL WEATHER SERVICE OMAHA NE
1200 AM CST THU FEB 23 2017

NOTES: SATELLITE DATA IS BEING USED TO AUGMENT CLOUD COVER ABOVE
       12000 FEET.
       "FAIR" INDICATES FEW OR NO CLOUDS BELOW 12,000 FEET WITH NO
       SIGNIFICANT WEATHER AND/OR OBSTRUCTIONS TO VISIBILITY.

  * THESE STATIONS DO NOT REPORT WEATHER SUCH AS RAIN...SNOW OR FOG.

NEZ001>004-019>022-054>056-230700-
NEBRASKA PANHANDLE

CITY           SKY/WX    TMP DP  RH WIND       PRES   REMARKS
SCOTTSBLUFF    LGT RAIN  36  32  85 NE14      29.80F WCI  27
6HR MIN TEMP:  36; 6HR MAX TEMP:  52; 6HR PCP:  0.02;

ALLIANCE       LGT SNOW  34  30  85 N18       29.79F FOG     WCI  23
6HR MIN TEMP:  34; 6HR MAX TEMP:  50; 6HR PCP: TRACE;

CHADRON        CLOUDY    34  28  79 NE15      29.86F WCI  24
6HR MIN TEMP:  34; 6HR MAX TEMP:  51;

KIMBALL        CLOUDY    37  29  72 NE9       29.76F WCI  30
SIDNEY         MOCLDY    38  27  64 NE15      29.76F WCI  29
6HR MIN TEMP:  38; 6HR MAX TEMP:  52;

$$

NEZ057>060-069>072-079>082-230700-
SOUTHWEST NEBRASKA

CITY           SKY/WX    TMP DP  RH WIND       PRES   REMARKS
NORTH PLATTE   CLEAR     40  33  76 NE15      29.75F WCI  32
6HR MIN TEMP:  40; 6HR MAX TEMP:  59;

IMPERIAL       CLEAR     38  23  55 NE10      29.74R WCI  31
6HR MIN TEMP:  36; 6HR MAX TEMP:  58;

LEXINGTON      CLEAR     41  30  66 NE10      29.77R
MCCOOK         CLEAR     40  28  62 NE12      29.72S WCI  33
6HR MIN TEMP:  40; 6HR MAX TEMP:  61;

OGALLALA       CLOUDY    42  33  72 NE17G23   29.76F
$$

NEZ005>010-023>029-035>040-094-230700-
NORTH CENTRAL NEBRASKA

CITY           SKY/WX    TMP DP  RH WIND       PRES   REMARKS
VALENTINE      CLOUDY    34  29  82 N13       29.89S WCI  25
6HR MIN TEMP:  34; 6HR MAX TEMP:  52;

AINSWORTH      CLOUDY    34  33  95 N17       29.85F WCI  24
BROKEN BOW     CLEAR     41  35  79 N20G28    29.77F
6HR MIN TEMP:  37; 6HR MAX TEMP:  58;

O`NEILL        CLOUDY    39  38  93 N18       29.84F WCI  30
ORD            CLEAR     41  34  76 N12       29.78F
6HR MIN TEMP:  38; 6HR MAX TEMP:  58;

THEDFORD       CLOUDY    35  32  88 N9G20     29.85R WCI  28
$$

NEZ041-046>049-061>064-073>077-083>087-230700-
SOUTH CENTRAL NEBRASKA

CITY           SKY/WX    TMP DP  RH WIND       PRES   REMARKS
GRAND ISLAND   CLEAR     35  31  85 NE9       29.79R WCI  28
6HR MIN TEMP:  35; 6HR MAX TEMP:  60;

AURORA         CLEAR     38  32  79 NE10      29.78R WCI  31
HASTINGS       CLEAR     43  32  65 NE10      29.77S
6HR MIN TEMP:  42; 6HR MAX TEMP:  62;

HEBRON         CLEAR     44  33  64 E6        29.75F
HOLDREGE       CLEAR     40  29  65 NE13      29.74F WCI  33
KEARNEY *      CLEAR     39  28  65 NE13      29.77S WCI  32
YORK           CLEAR     41  34  75 NE12      29.79R
$$

NEZ011>018-030>034-042>045-230700-
NORTHEAST NEBRASKA

CITY           SKY/WX    TMP DP  RH WIND       PRES   REMARKS
NORFOLK        PTCLDY    41  36  82 N13       29.82R
6HR MIN TEMP:  41; 6HR MAX TEMP:  57;

ALBION         CLOUDY    42  37  80 N20G28    29.80F
BLAIR          CLEAR     45  39  78 N9        29.79S
FREMONT        CLEAR     44  37  78 N6        29.81R
TEKAMAH        PTCLDY    42  37  82 N10       29.81S
6HR MIN TEMP:  42; 6HR MAX TEMP:  60;

WAYNE          CLOUDY    40  38  92 N10       29.83R WCI  34
$$

NEZ050>053-065>068-078-088>093-230700-
SOUTHEAST NEBRASKA

CITY           SKY/WX    TMP DP  RH WIND       PRES   REMARKS
LINCOLN        CLEAR     46  38  73 NE13      29.78S
6HR MIN TEMP:  43; 6HR MAX TEMP:  66;

OMAHA EPPLEY   CLEAR     43  36  76 N9        29.79F
6HR MIN TEMP:  41; 6HR MAX TEMP:  64;

BEATRICE       CLEAR     48  38  66 NE9       29.75R
FALLS CITY     PTCLDY    52  39  61 NE13      29.74S
6HR MIN TEMP:  52; 6HR MAX TEMP:  68;

NEBRASKA CITY  CLEAR     49  35  59 NE12      29.77F
PLATTSMOUTH    PTCLDY    47  37  65 N12       29.77F
$$

NEZ044-045-051>053-067-230700-
OMAHA AREA

CITY           SKY/WX    TMP DP  RH WIND       PRES   REMARKS
OMAHA EPPLEY   CLEAR     43  36  76 N9        29.79F
6HR MIN TEMP:  41; 6HR MAX TEMP:  64;

BLAIR          CLEAR     45  39  78 N9        29.79S
FREMONT        CLEAR     44  37  78 N6        29.81R
MILLARD        CLEAR     51  41  70 CALM      29.79S
OFFUTT AFB     CLEAR     49  37  64 N8        29.78F
PLATTSMOUTH    PTCLDY    47  37  65 N12       29.77F
WAHOO          FAIR      43  37  81 NE9       29.79S
$$




USA.gov is the U.S. government's official web portal to all federal, state and local government web resources and services.